Weather History for Anchorage Merrill, AK

Change the Weather History Date:

Friday, September 6, 2013

  Actual Average Record
Temperature  
Mean Temperature 50 °F -  
Max Temperature 55 °F 58 °F 66 °F (1996)
Min Temperature 46 °F 43 °F 39 °F (1999)
Degree Days  
Heating Degree Days 14    
Moisture  
Dew Point 47 °F    
Average Humidity 86    
Maximum Humidity 93    
Minimum Humidity 72    
Precipitation  
Precipitation 0.20 in - - ()
Sea Level Pressure  
Sea Level Pressure 29.63 in    
Wind  
Wind Speed 4 mph (North)    
Max Wind Speed 12 mph    
Max Gust Speed 17 mph    
Visibility 10 miles    
Events Rain    
Averages and records for this station are not official NWS values.
T = Trace of Precipitation, MM = Missing Value Source: NWS Daily Summary

Daily Weather History Graph

Daily Weather History Graph

Search for Another Location

Airport:

Trip Planner

Search our weather history database for the weather conditions in past years. The results will help you decide how hot, cold, wet, or windy it might be!

Date:

Astronomy

Sep. 06, 2013 Rise Set
Actual Time 7:04 AM AKDT 8:48 PM AKDT
Civil Twilight 6:19 AM AKDT 9:34 PM AKDT
Nautical Twilight 5:20 AM AKDT 10:32 PM AKDT
Astronomical Twilight 4:06 AM AKDT 11:44 PM AKDT
Moon 9:05 AM AKDT (9/6) 8:33 PM AKDT (9/6)
Length of Visible Light 15h 15m
Length of Day
13h 44m
New Moon, 2% of the Moon is Illuminated
Sep 6
New Moon
Sep 12
First Quarter
Sep 19
Full
Sep 26
Last Quarter
Oct 4
New

Hourly Weather History & Observations

Time (AKDT) Temp. Dew Point Humidity Pressure Visibility Wind Dir Wind Speed Gust Speed Precip Events Conditions
12:53 AM 52.0 °F 46.9 °F 83% 30.01 in 10.0 mi Calm Calm - N/A   Mostly Cloudy
1:53 AM 48.9 °F 46.0 °F 90% 30.00 in 10.0 mi NE 3.5 mph - N/A   Mostly Cloudy
2:53 AM 48.9 °F 46.0 °F 90% 29.98 in 10.0 mi Calm Calm - N/A   Mostly Cloudy
3:53 AM 48.0 °F 45.0 °F 89% 29.95 in 10.0 mi Calm Calm - N/A   Mostly Cloudy
4:53 AM 48.0 °F 45.0 °F 89% 29.91 in 10.0 mi Calm Calm - N/A   Mostly Cloudy
5:53 AM 48.0 °F 43.0 °F 83% 29.88 in 10.0 mi NNE 4.6 mph - N/A   Mostly Cloudy
6:53 AM 48.0 °F 42.1 °F 80% 29.84 in 10.0 mi NNE 5.8 mph - N/A   Mostly Cloudy
7:53 AM 48.0 °F 44.1 °F 86% 29.79 in 9.0 mi North 3.5 mph - 0.01 in Rain Rain
8:53 AM 46.9 °F 45.0 °F 93% 29.73 in 8.0 mi NNE 5.8 mph - 0.08 in Rain Light Rain
9:53 AM 48.0 °F 46.0 °F 93% 29.68 in 10.0 mi North 4.6 mph - 0.04 in Rain Light Rain
10:29 AM 48.2 °F 46.4 °F 93% 29.65 in 10.0 mi East 3.5 mph - 0.01 in Rain Light Rain
10:53 AM 48.0 °F 46.0 °F 93% 29.63 in 10.0 mi Calm Calm - 0.01 in Rain Light Rain
11:53 AM 48.9 °F 46.0 °F 90% 29.60 in 10.0 mi Calm Calm - 0.01 in Rain Light Rain
12:53 PM 50.0 °F 46.9 °F 89% 29.56 in 10.0 mi North 6.9 mph - 0.03 in Rain Light Rain
1:53 PM 50.0 °F 46.9 °F 89% 29.54 in 10.0 mi North 8.1 mph - 0.00 in   Overcast
2:45 PM 53.6 °F 48.2 °F 82% 29.50 in 10.0 mi North 11.5 mph 17.3 mph N/A   Mostly Cloudy
2:53 PM 54.0 °F 48.0 °F 80% 29.50 in 10.0 mi North 10.4 mph 17.3 mph N/A   Scattered Clouds
3:00 PM 53.6 °F 48.2 °F 82% 29.50 in 10.0 mi North 10.4 mph - N/A   Mostly Cloudy
3:53 PM 55.0 °F 46.9 °F 74% 29.48 in 10.0 mi North 10.4 mph - N/A   Mostly Cloudy
4:53 PM 55.9 °F 46.9 °F 72% 29.45 in 10.0 mi North 9.2 mph 17.3 mph N/A   Mostly Cloudy
5:53 PM 55.9 °F 48.9 °F 77% 29.44 in 10.0 mi NNE 4.6 mph - N/A   Mostly Cloudy
6:00 PM 55.4 °F 48.2 °F 77% 29.44 in 10.0 mi North 8.1 mph - N/A   Mostly Cloudy
6:53 PM 54.0 °F 48.9 °F 83% 29.43 in 10.0 mi North 4.6 mph - N/A   Mostly Cloudy
7:53 PM 55.0 °F 48.9 °F 80% 29.44 in 10.0 mi North 5.8 mph - N/A   Mostly Cloudy
8:53 PM 52.0 °F 48.0 °F 86% 29.44 in 10.0 mi Variable 3.5 mph - N/A   Mostly Cloudy
9:53 PM 51.1 °F 48.0 °F 89% 29.44 in 10.0 mi NW 5.8 mph - N/A   Mostly Cloudy
10:53 PM 50.0 °F 48.0 °F 93% 29.47 in 10.0 mi Calm Calm - 0.01 in Rain Light Rain
11:53 PM 50.0 °F 48.0 °F 93% 29.48 in 10.0 mi NNE 5.8 mph - 0.01 in   Overcast